EW5385 Weather Reports


time (UTC)temp
F
wind
direction
speed
knots
gust
knots
rain 1hr
in
rain 24hr
in
rain mn
in
humidity
%
barometer
mb
20260505111520 69 91 0.0 0.0 0.00 0.00 0.00 1 1014.1
20260505101518 70 91 0.0 0.0 0.00 0.00 0.00 1 1013.8
20260505100002 70 91 0.0 0.0 0.00 0.00 0.00 1 1013.5
20260505094557 70 67 0.0 0.0 0.00 0.00 0.00 1 1013.4
20260505093055 71 67 0.0 0.0 0.00 0.00 0.00 3 1013.6
20260505091549 71 67 0.0 0.0 0.00 0.00 0.00 6 1013.3
20260505090047 71 67 0.0 0.0 0.00 0.00 0.00 12 1013.3
20260505084540 71 76 0.0 0.0 0.00 0.00 0.00 13 1013.1
20260505083036 71 85 0.0 0.0 0.00 0.00 0.00 20 1012.6
20260505081538 72 79 0.0 0.0 0.00 0.00 0.00 28 1012.3
20260505080037 72 79 0.0 0.0 0.00 0.00 0.00 34 1012.2
20260505074521 72 62 0.0 0.0 0.00 0.00 0.00 40 1012.2
20260505073029 73 31 0.0 0.0 0.00 0.00 0.00 45 1012.1
20260505071518 73 53 0.0 0.0 0.00 0.00 0.00 50 1011.9
20260505070009 73 49 0.0 5.2 0.00 0.00 0.00 55 1011.8
20260505064513 74 20 0.0 0.0 0.00 0.00 0.00 60 1011.6
20260505063059 75 25 0.0 5.2 0.00 0.00 0.00 65 1011.8
20260505061559 75 84 0.0 0.0 0.00 0.00 0.00 69 1011.5
20260505060051 75 51 0.0 0.0 0.00 0.00 0.00 69 1011.5
20260505054607 76 43 0.0 0.0 0.00 0.00 0.00 69 1011.3
20260505053056 77 48 1.7 7.8 0.00 0.00 0.00 68 1011.3
20260505051538 78 1 1.7 7.0 0.00 0.00 0.00 68 1011.4
20260505041524 79 114 0.0 0.0 0.00 0.00 0.00 64 1010.9
20260505040021 79 132 0.0 0.0 0.00 0.00 0.00 64 1010.9
20260505034516 79 103 0.0 0.0 0.00 0.00 0.00 64 1010.9
20260505033012 79 129 0.0 0.0 0.00 0.00 0.00 65 1010.9
20260505031521 79 273 0.0 0.0 0.00 0.00 0.00 65 1011.0
20260505030004 79 110 0.0 0.0 0.00 0.00 0.00 66 1011.1
20260505024600 79 317 0.0 0.0 0.00 0.00 0.00 66 1011.3
20260505023114 78 206 0.0 0.0 0.00 0.00 0.00 67 1011.9
20260505021549 77 304 0.0 0.0 0.00 0.00 0.00 68 1012.1
20260505020043 78 196 0.0 0.0 0.00 0.00 0.00 67 1012.2
20260505014539 77 223 0.0 0.0 0.00 0.00 0.00 68 1012.4
20260505013035 76 274 0.0 0.0 0.00 0.00 0.00 69 1012.6
20260505011534 76 143 0.0 0.0 0.00 0.00 0.00 69 1012.9
20260505010026 76 165 0.0 0.0 0.00 0.00 0.00 68 1013.3
20260505004540 75 261 0.0 0.0 0.00 0.00 0.00 62 1013.5
20260505003017 73 164 0.0 0.0 0.00 0.00 0.00 59 1013.7
20260505001513 73 219 0.0 0.0 0.00 0.00 0.00 55 1013.9
20260505000013 72 157 0.0 0.0 0.00 0.00 0.00 46 1013.9
20260504234508 71 280 0.0 0.0 0.00 0.00 0.00 26 1014.0
20260504233101 71 224 0.0 0.0 0.00 0.00 0.00 1 1014.2
20260504231555 69 245 0.0 0.0 0.00 0.00 0.00 1 1014.3
20260504230104 68 223 0.0 0.0 0.00 0.00 0.00 1 1014.3
20260504224546 67 257 0.0 5.2 0.00 0.00 0.00 1 1014.3
20260504223042 66 200 0.0 0.0 0.00 0.00 0.00 1 1014.2
20260504221549 65 238 0.0 0.9 0.00 0.00 0.00 1 1014.4
20260504220032 65 229 0.0 0.0 0.00 0.00 0.00 1 1014.2
20260504214528 64 231 0.0 0.0 0.00 0.00 0.00 1 1014.1
20260504213023 63 223 0.0 0.0 0.00 0.00 0.00 1 1014.1
20260504211519 63 219 0.0 0.0 0.00 0.00 0.00 1 1014.0
20260504210018 62 223 0.0 0.0 0.00 0.00 0.00 1 1013.9
20260504204509 62 251 0.0 0.0 0.00 0.00 0.00 1 1013.7
20260504203007 0 0.0 0.0 0.00 0.00 0.00 1013.6
20260504201602 0 0.0 0.0 0.00 0.00 0.00 1013.5
20260504200055 0 0.0 0.0 0.00 0.00 0.00 1013.4
20260504194551 0 0.0 0.0 0.00 0.00 0.00 1013.1
20260504193047 0 0.0 0.0 0.00 0.00 0.00 1012.9
20260504191543 0 0.0 0.0 0.00 0.00 0.00 1012.8
20260504190038 0 0.0 0.0 0.00 0.00 0.00 1012.7
20260504184534 0 0.0 0.0 0.00 0.00 0.00 1012.6
20260504183029 0 0.0 0.0 0.00 0.00 0.00 1012.7
20260504181529 0 0.0 0.0 0.00 0.00 0.00 1012.5
20260504180021 0 0.0 0.0 0.00 0.00 0.00 1012.4
20260504174516 0 0.0 0.0 0.00 0.00 0.00 1012.4
20260504173011 0 0.0 0.0 0.00 0.00 0.00 1012.5
20260504171507 0 0.0 0.0 0.00 0.00 0.00 1012.5